Regional Weather Roundup
Issued by NWS

Home | Current Version | Previous Version | Graphics & Text | Print | Product List | Glossary On
Versions: 1 2 3 4 5 6 7 8 9 10 11 12 13 14 15 16 17 18 19 20 21 22 23 24 25 26 27 28 29 30 31 32 33 34 35 36 37 38 39 40 41 42 43 44 45 46 47 48 49 50
000
ASUS43 KLMK 200610
RWRKY
KENTUCKY REGIONAL WEATHER ROUNDUP
NATIONAL WEATHER SERVICE LOUISVILLE KY
200 AM EDT FRI OCT 20 2017

NOTE "FAIR" INDICATES FEW OR NO CLOUDS BELOW 12,000 FEET
WITH NO SIGNIFICANT WEATHER AND/OR OBSTRUCTIONS TO VISIBILITY.

KYZ001>023-026-027-061>063-070>075-200700-
WESTERN AND SOUTH CENTRAL KENTUCKY

CITY           SKY/WX    TMP DP  RH WIND       PRES   REMARKS
PADUCAH        FAIR      49  46  90 CALM      30.21S
HENDERSON      FAIR      50  48  93 CALM      30.23R
OWENSBORO      FAIR      52  50  93 CALM      30.23S
HOPKINSVILLE   FAIR      52  49  90 CALM      30.23S
BOWLING GREEN  FOG       49  49 100 CALM      30.25S VSB 3/4
GLASGOW        FAIR      47  47 100 CALM      30.26R
$$

KYZ024-025-028>034-038-045-046-053-200700-
NORTH CENTRAL KENTUCKY

CITY           SKY/WX    TMP DP  RH WIND       PRES   REMARKS
LOUISVILLE/SDF FAIR      56  52  86 SE5       30.24R
LOUISVILLE/LOU FAIR      53  51  93 CALM      30.25R
FORT KNOX      FAIR      50  49  99 CALM      30.23S
$$

KYZ035>037-039>044-047>052-055>060-089>105-200700-
NORTHEAST KENTUCKY

CITY           SKY/WX    TMP DP  RH WIND       PRES   REMARKS
LEXINGTON      FAIR      50  45  83 S6        30.26S
COVINGTON      FAIR      56  52  86 CALM      30.23S
FRANKFORT      FAIR      48  45  89 CALM      30.25S
$$

KYZ054-064>069-076>088-106>120-200700-
SOUTHEAST KENTUCKY

CITY           SKY/WX    TMP DP  RH WIND       PRES   REMARKS
JACKSON        FAIR      55  47  74 CALM      30.28R
LONDON         FAIR      46  44  93 CALM      30.28S
SOMERSET       FAIR      45  45 100 CALM      30.29S
MIDDLESBORO    FAIR      45  45 100 CALM      30.32R
MONTICELLO     FAIR      43  42  97 W3        30.30R
$$





USA.gov is the U.S. government's official web portal to all federal, state and local government web resources and services.